GFSWCAN_con_3kmhel_000.txt.gz
Helicity
179 132 94 78 79 86 84 88 82 87 89 94 101 122 139 139 157 114 108 123 95 96 72 74 83 103 107 112 119 83 147 162 193 213 216 179 224 149 225 167 170 153 149 197 180 189 71 133 111 94 131 181 138 94
134 164 114 89 87 91 95 91 81 85 96 96 106 120 135 148 166 132 132 134 120 111 70 93 88 79 67 45 92 138 146 159 158 247 213 233 208 266 227 249 217 193 210 190 260 236 221 244 111 133 131 135 146 172
164 174 147 100 82 106 105 88 76 85 91 101 108 108 122 142 163 134 128 146 146 135 112 111 90 102 83 64 82 143 154 150 176 168 197 206 252 294 251 219 246 223 126 218 200 199 169 100 88 156 149 159 202 239
107 150 222 117 105 107 118 101 99 93 92 99 104 105 106 121 148 137 140 135 152 133 121 90 91 88 108 96 107 153 154 198 196 200 257 271 280 251 245 209 271 239 190 185 184 137 130 118 173 112 127 82 119 28
65 156 182 180 96 89 97 90 89 98 110 105 112 116 112 109 131 136 127 122 123 137 95 86 77 82 90 107 103 155 185 230 240 269 306 290 267 278 289 269 271 246 180 202 200 137 98 105 141 123 160 158 61 35
44 98 177 150 117 108 96 131 140 117 111 101 104 114 106 98 105 139 148 127 129 146 138 106 82 93 83 127 177 166 205 231 263 284 237 235 251 192 205 261 159 182 166 160 178 123 153 209 212 238 180 86 51 94
49 37 117 164 179 137 112 142 135 135 127 104 97 105 98 87 154 167 126 110 134 204 186 125 128 162 128 183 237 211 213 223 222 200 247 180 176 197 281 247 227 123 153 140 158 165 209 175 198 194 175 164 131 125
32 47 91 145 219 276 192 174 198 175 144 116 101 95 113 166 170 161 175 168 181 187 173 199 276 305 218 202 186 158 181 188 186 217 258 225 232 226 227 151 155 157 174 156 198 218 174 127 156 170 154 156 135 96
23 49 153 145 168 278 346 270 181 196 194 175 187 231 251 238 228 234 162 233 263 226 244 284 275 170 209 190 143 177 193 195 161 238 253 233 244 227 209 169 134 120 145 197 198 167 203 244 215 140 114 113 89 78
33 27 71 66 82 131 187 316 292 287 203 299 345 319 336 252 177 170 196 186 268 313 296 326 372 200 160 167 199 216 198 206 243 209 181 209 224 270 191 191 196 243 257 217 222 193 160 130 107 107 94 94 94 72
54 46 34 11 29 59 39 24 104 131 201 268 299 271 170 186 205 200 207 196 264 340 217 185 143 194 260 217 197 155 188 195 247 249 278 314 301 255 243 245 243 225 182 131 100 70 79 124 123 124 133 120 121 146
66 61 50 33 36 71 99 73 126 122 105 126 117 157 150 161 201 205 217 189 180 218 165 132 120 152 196 199 182 220 228 222 263 266 288 304 216 242 293 273 216 191 169 163 134 135 129 119 111 112 115 137 165 170
61 75 78 65 42 63 90 67 99 99 138 169 173 218 189 170 264 284 283 340 278 194 134 128 167 157 177 207 203 213 274 287 294 314 287 185 248 275 249 226 208 165 149 139 133 107 94 70 57 97 125 140 156 146
56 60 66 64 56 65 96 147 115 107 140 163 153 236 178 215 240 269 240 183 185 161 139 151 173 171 197 212 212 244 239 268 310 268 163 201 215 214 205 170 150 131 106 80 65 45 53 74 103 119 139 124 126 135
86 79 74 72 68 80 85 120 102 68 102 114 119 134 146 170 175 147 130 139 155 156 173 178 199 194 208 234 241 268 269 234 145 88 127 137 145 146 154 151 132 106 89 71 67 93 108 111 119 107 101 115 138 144
121 123 105 66 76 98 105 109 107 89 121 117 114 137 106 115 119 106 100 111 121 163 184 201 214 228 226 248 274 254 242 120 112 118 117 114 147 146 155 126 87 68 74 94 117 124 116 110 102 98 107 109 112 139
161 198 91 90 109 139 152 123 128 146 109 127 119 131 116 108 65 75 96 110 116 166 205 198 227 198 244 283 284 154 131 114 76 89 107 123 151 134 105 98 94 109 120 131 127 112 110 113 101 99 87 86 105 81
212 112 98 87 143 170 167 149 141 149 157 141 115 89 105 109 115 119 104 110 140 144 157 186 177 252 268 232 167 117 72 66 82 132 132 152 143 115 108 105 113 132 123 114 111 113 122 96 87 84 98 98 96 80
81 92 110 142 137 149 128 140 158 128 116 112 121 111 105 100 109 125 112 120 130 137 170 193 212 189 154 154 97 75 69 105 119 113 133 132 107 111 110 114 118 110 108 105 103 107 114 110 116 114 131 122 96 87
100 127 166 163 141 143 130 122 122 106 80 85 110 113 119 119 122 122 117 135 144 150 172 194 183 164 111 88 83 118 120 115 144 118 85 110 121 106 114 111 113 113 96 99 94 95 99 102 114 127 109 73 75 93
200 173 204 149 181 160 113 82 110 77 81 111 104 98 103 91 93 100 87 101 146 169 168 156 135 128 129 147 136 147 153 182 159 175 154 125 120 126 120 114 120 110 120 101 72 69 82 100 79 98 83 62 57 71
243 154 175 192 143 151 132 134 97 98 104 90 104 94 100 96 80 77 101 126 133 117 122 145 154 178 155 127 137 160 134 125 141 168 165 160 131 119 122 128 132 124 121 116 109 113 106 106 84 92 89 70 48 63
178 163 168 145 136 157 121 128 143 123 103 83 91 102 94 86 82 84 102 86 70 52 131 145 144 166 154 135 122 99 112 109 122 132 132 131 130 117 118 119 129 115 105 119 104 119 96 69 67 98 83 76 64 59
122 123 142 135 140 133 101 100 107 108 104 106 98 100 82 78 89 88 77 88 72 110 105 112 152 140 128 96 106 124 130 136 125 120 123 127 98 86 126 112 93 96 103 89 95 98 87 89 85 79 94 100 83 70
124 120 107 113 119 112 84 105 115 94 77 88 99 86 67 81 75 77 79 66 63 78 86 115 104 103 97 108 115 115 107 117 132 115 92 131 134 140 120 116 100 97 75 100 102 100 82 89 89 80 88 92 82 68
104 87 80 56 71 80 62 82 70 65 78 69 39 59 84 98 99 56 77 38 53 66 79 48 57 106 136 126 118 95 57 29 68 104 106 143 198 216 174 133 100 77 60 96 92 77 75 79 69 74 86 70 81 78
69 50 39 62 46 50 56 62 71 68 58 41 61 98 108 96 72 89 77 74 93 77 68 79 129 145 133 100 84 75 63 86 110 122 116 133 163 191 168 139 101 83 77 82 80 77 74 73 84 91 86 68 74 78
44 34 34 40 43 62 67 71 68 53 60 96 155 141 111 119 118 117 99 96 114 120 92 109 134 142 113 91 82 70 64 90 88 68 100 131 122 111 117 121 94 73 71 65 69 78 81 78 72 77 74 69 69 61
56 53 86 67 87 78 69 97 105 119 140 175 166 175 183 176 152 139 138 110 97 118 113 93 74 77 73 68 74 83 96 99 104 89 62 56 90 122 127 102 91 79 69 67 74 84 91 95 96 85 64 49 40 39
57 93 109 113 130 120 125 134 128 140 171 203 203 210 216 204 196 188 174 147 129 123 111 102 103 84 64 59 66 106 149 147 140 129 111 93 96 99 99 103 96 86 77 74 82 91 97 112 101 102 92 76 60 49
101 124 136 155 141 115 118 149 169 176 186 180 202 222 185 187 239 237 255 186 139 126 128 133 130 111 95 107 116 119 117 139 148 148 133 137 119 109 112 98 78 68 68 71 76 83 91 95 95 84 87 88 96 92
113 113 137 137 121 109 136 135 146 163 160 186 150 193 210 243 247 251 218 183 143 134 123 108 98 97 99 96 98 111 123 108 129 128 121 101 92 83 77 69 67 67 70 81 91 99 113 120 112 113 108 123 128 137
122 135 123 107 109 107 113 130 140 102 110 110 117 106 121 152 170 138 150 104 50 45 59 73 70 64 93 124 127 123 127 113 117 124 119 91 78 70 61 62 64 76 92 100 107 109 119 121 113 114 117 123 128 134

GFSWCAN_con_3kmhel_003.txt.gz
Helicity
216 184 113 97 103 89 82 75 68 87 89 93 109 122 120 123 133 91 86 105 84 87 64 68 73 82 96 88 97 54 96 85 121 133 103 98 141 166 206 161 136 167 144 163 208 175 93 151 147 145 181 157 102 86
172 171 112 86 86 88 87 80 73 69 87 90 101 117 128 135 135 91 99 104 112 100 68 100 111 96 87 47 79 73 83 80 82 137 116 186 186 267 247 238 168 158 144 165 210 217 130 162 142 148 95 75 101 97
80 150 137 92 70 79 83 79 79 82 78 90 92 109 134 144 155 108 97 111 129 123 129 130 110 113 110 106 84 109 93 106 123 146 174 232 244 323 292 223 213 227 168 200 199 159 113 112 116 118 116 139 34 102
30 72 147 161 114 80 86 87 86 84 79 95 106 111 125 143 155 132 125 115 139 132 125 107 104 110 114 93 103 106 98 148 176 184 240 298 287 260 304 250 261 201 204 173 202 86 92 143 120 101 120 110 117 64
43 39 89 142 157 119 107 92 87 94 93 92 109 114 126 135 138 133 133 136 139 138 93 97 103 122 131 98 111 138 143 164 169 214 284 279 280 281 288 309 303 211 183 200 197 143 171 230 221 148 171 144 150 164
56 37 76 146 155 177 120 86 101 110 110 98 92 92 95 110 134 149 154 135 146 142 155 111 124 145 159 167 153 148 156 174 201 259 266 270 242 221 246 302 199 140 134 104 180 246 195 159 140 164 180 122 125 114
55 43 47 87 130 203 169 108 125 134 121 103 97 91 81 90 142 161 141 128 144 175 160 122 116 134 196 204 222 226 213 218 242 265 299 250 223 197 310 253 187 187 131 235 184 205 236 164 183 151 120 133 108 73
60 44 28 27 79 117 226 118 105 112 112 100 78 89 112 141 132 137 152 115 150 147 163 171 166 183 148 137 140 174 194 211 246 256 267 250 243 278 288 262 257 182 212 233 245 296 295 279 206 120 100 87 84 92
54 40 58 73 79 118 213 222 140 96 134 156 159 139 189 195 195 168 144 188 178 163 139 178 212 148 218 208 175 214 195 189 217 297 271 239 271 286 244 218 185 213 193 194 277 240 177 117 76 68 90 89 91 82
53 39 61 111 91 153 203 272 167 152 226 244 303 257 252 222 221 188 221 165 108 209 254 237 367 329 221 189 248 208 190 220 258 272 207 269 317 298 242 206 203 179 169 172 177 136 87 94 82 75 70 77 86 98
45 37 32 92 102 130 141 264 308 208 344 386 327 317 291 273 322 246 221 230 290 312 269 327 310 307 288 222 212 134 156 218 281 276 284 301 267 224 231 231 203 210 172 146 107 84 82 76 79 84 78 78 99 116
41 45 27 15 28 53 52 156 318 339 298 235 190 295 339 352 260 296 360 274 189 292 322 259 257 257 222 144 145 143 214 220 248 228 245 265 187 243 232 219 173 141 139 134 108 104 107 104 94 69 88 112 118 122
38 46 41 23 34 34 36 73 111 129 166 149 282 362 311 283 338 316 341 382 378 256 134 125 193 125 121 163 189 191 193 246 257 267 272 197 200 200 169 140 174 178 162 154 133 122 100 67 83 120 112 118 115 113
47 44 55 46 69 48 52 47 91 69 89 215 239 375 358 263 323 298 244 198 151 117 103 144 143 125 160 182 183 218 237 255 298 281 176 176 147 125 134 192 238 202 147 120 86 68 75 97 103 115 128 114 110 116
78 69 66 88 84 61 70 80 73 99 114 147 149 153 134 133 148 132 101 114 133 124 136 141 155 155 182 198 245 262 272 253 193 143 153 117 105 123 188 229 178 129 99 82 84 102 111 116 123 107 99 100 100 102
54 70 75 53 94 101 105 83 90 62 91 106 122 151 65 110 104 85 97 101 106 147 180 182 175 165 188 218 252 251 274 186 165 160 136 126 142 178 179 143 110 102 99 101 118 136 122 115 115 100 103 96 94 105
108 137 67 81 111 100 124 101 137 145 118 130 125 99 63 69 44 65 77 84 100 135 141 152 162 169 211 222 245 194 165 159 161 190 147 132 155 151 118 106 106 104 114 131 132 126 115 113 117 121 113 99 106 100
96 86 97 88 129 162 163 145 144 134 128 99 100 79 85 88 88 92 91 104 113 118 143 151 162 212 215 182 149 133 148 192 129 123 135 132 134 110 115 105 105 121 126 133 132 116 114 96 72 92 110 121 109 84
90 124 134 169 174 156 111 99 88 95 93 84 92 93 101 105 122 124 113 120 128 132 179 194 189 158 135 138 119 119 80 87 102 95 114 113 107 103 104 110 116 117 133 123 102 96 93 82 67 78 123 148 114 113
209 277 212 176 108 123 115 108 102 92 83 79 94 103 118 129 125 133 137 145 159 166 196 197 156 137 79 53 59 86 88 86 101 91 76 90 91 101 109 115 126 124 112 97 101 108 91 73 58 62 105 132 117 111
263 220 203 147 136 116 87 69 90 70 64 88 92 99 103 100 111 115 116 131 149 189 160 109 102 96 108 110 103 128 131 135 116 127 121 98 113 137 128 124 113 130 120 102 100 93 90 101 96 92 98 107 107 108
162 123 155 143 99 93 77 94 78 93 100 81 98 100 95 86 81 91 101 112 110 104 120 122 136 128 104 91 96 118 103 101 116 129 126 129 129 133 133 131 140 117 111 105 102 97 98 97 93 95 98 101 103 100
160 171 158 120 86 101 93 140 150 143 120 98 107 111 104 100 82 87 81 79 73 47 80 84 70 78 77 81 87 83 106 119 126 137 145 148 142 132 130 119 118 117 111 97 99 101 107 86 86 93 89 89 94 96
192 130 116 107 112 107 97 114 121 123 124 126 111 103 86 77 79 80 79 78 50 78 80 83 86 67 77 79 87 101 139 134 131 136 146 134 117 109 133 119 126 153 153 123 101 101 105 100 95 94 83 78 76 82
115 123 101 127 125 121 113 109 104 96 102 102 109 93 75 77 83 74 60 45 46 64 81 92 100 73 64 75 88 110 131 144 131 100 95 117 102 104 94 111 130 144 174 145 116 106 107 96 84 80 78 83 88 88
104 78 71 41 51 76 78 86 83 106 113 96 66 80 83 96 91 54 56 26 46 69 90 112 98 73 75 80 108 129 115 86 90 95 85 91 93 107 103 94 91 126 109 83 72 75 80 76 75 65 65 68 74 82
63 38 32 43 61 73 100 111 100 93 75 58 54 74 78 71 41 45 58 73 112 151 137 138 135 124 127 122 146 143 117 97 119 121 102 94 98 87 82 85 86 106 119 98 82 83 68 66 62 62 64 66 76 83
17 20 39 42 71 73 81 73 55 30 40 71 118 98 78 71 73 106 146 213 193 141 106 98 93 109 123 121 118 106 84 90 101 115 120 117 123 126 155 145 141 137 119 88 76 77 71 64 63 64 62 67 73 74
29 38 79 75 66 49 45 64 64 59 77 113 123 132 127 137 177 185 164 135 118 108 113 101 95 113 104 119 109 111 114 111 94 67 65 104 102 111 126 110 104 109 98 90 89 85 77 75 77 78 78 81 75 66
33 60 83 83 89 78 73 93 80 89 114 145 154 162 167 187 166 160 163 153 150 144 143 137 125 99 69 46 46 74 105 131 143 121 116 128 143 128 106 107 119 109 99 85 74 70 79 101 102 111 110 111 113 112
68 83 105 108 86 78 99 132 143 146 156 138 159 163 154 178 214 209 228 180 115 87 87 105 131 113 76 76 93 109 122 140 133 133 123 115 109 118 122 111 90 70 63 61 68 81 86 95 110 113 132 138 133 129
104 104 113 107 95 95 107 130 133 135 140 150 132 155 168 210 225 199 131 117 102 112 123 106 101 122 115 108 118 127 120 96 104 108 123 112 114 114 97 78 67 58 59 67 77 89 102 113 111 116 123 142 143 147
78 83 93 94 95 90 101 124 135 106 114 113 119 119 133 149 162 141 113 108 78 79 109 93 94 85 84 85 81 70 76 66 78 93 95 86 65 59 51 54 56 64 79 88 99 102 113 122 127 132 138 142 143 140

GFSWCAN_con_3kmhel_009.txt.gz
Helicity
265 143 129 116 107 117 120 119 124 124 113 111 116 122 141 170 177 140 101 116 132 122 103 138 125 103 116 91 105 131 141 143 150 152 138 137 158 137 132 110 102 77 78 113 158 200 136 155 172 217 145 122 163 110
239 237 174 130 125 120 120 117 120 131 128 125 130 135 140 161 185 150 100 111 140 122 106 125 119 130 165 161 120 72 147 98 106 145 154 161 175 172 160 150 88 66 91 132 205 186 110 114 120 81 182 160 141 169
203 233 213 129 122 116 104 109 117 122 125 123 130 139 145 149 177 169 113 117 115 114 109 96 109 113 108 132 129 110 128 132 118 186 161 170 185 151 189 142 99 94 70 231 174 131 71 95 82 257 216 141 134 121
122 134 199 204 121 105 99 95 107 107 111 125 125 131 139 147 157 155 132 125 137 123 115 109 100 127 135 131 132 155 153 172 183 168 204 208 210 124 196 142 148 119 113 128 148 75 85 91 263 225 131 102 79 4
111 114 131 177 204 145 99 99 93 97 95 104 116 119 133 141 153 132 124 134 143 153 96 114 151 128 144 135 121 121 109 128 167 201 231 206 209 214 259 251 177 132 92 122 153 153 174 208 233 105 96 105 101 120
71 82 117 166 183 177 168 120 94 88 86 90 96 101 116 144 166 120 106 107 144 171 141 130 122 129 143 141 139 135 125 146 138 166 188 189 168 176 226 268 187 185 135 103 141 202 204 243 108 72 131 137 127 140
65 65 90 125 170 195 199 151 98 85 80 95 93 89 103 146 170 180 193 156 177 181 173 152 118 191 217 212 212 184 198 163 164 170 186 225 197 198 274 296 192 170 138 204 193 210 198 131 111 111 81 94 111 104
81 80 82 99 121 154 196 201 140 95 87 96 95 103 104 125 136 165 176 158 181 185 204 194 194 191 178 239 229 260 217 206 175 225 267 217 207 313 305 241 166 167 261 198 220 230 210 65 45 68 75 124 130 104
80 92 93 89 91 107 136 187 184 130 98 102 111 98 142 152 177 179 138 177 187 213 206 225 238 197 192 272 245 202 187 188 214 239 241 230 304 363 245 150 192 181 149 170 146 76 45 60 82 116 137 116 98 80
93 97 99 100 98 105 92 106 154 132 156 164 218 218 191 180 148 105 185 188 209 218 226 216 273 280 218 222 235 223 206 205 217 197 227 277 365 276 243 201 206 151 111 125 126 134 129 116 128 121 105 86 81 101
106 116 120 110 98 93 72 74 66 83 135 246 266 230 301 296 306 251 233 226 261 269 202 288 309 334 315 326 287 255 230 247 256 223 277 296 324 150 173 195 186 162 142 141 161 176 133 124 103 90 85 96 98 100
91 116 120 121 109 92 57 100 105 177 186 241 249 255 277 308 371 264 326 354 287 249 291 272 394 386 394 364 317 263 321 274 300 300 358 363 238 183 116 154 170 164 168 180 157 129 115 99 97 102 91 91 100 128
65 85 100 111 107 88 45 81 151 128 226 313 334 306 355 300 345 357 369 495 472 369 331 353 418 368 344 284 294 253 281 368 408 462 387 286 226 127 132 127 148 154 211 168 129 125 113 96 110 107 106 106 128 120
51 63 69 94 114 76 51 56 131 114 94 151 172 249 291 252 290 268 394 409 372 359 391 399 410 379 365 371 315 366 441 394 452 442 254 175 115 91 132 149 139 162 152 136 121 107 101 102 103 117 132 134 143 130
59 68 53 53 84 70 85 98 111 79 100 133 184 199 256 229 200 264 315 320 350 280 325 427 466 384 490 470 353 394 406 449 303 235 215 116 110 144 168 160 171 158 131 112 101 96 108 118 120 112 123 126 122 136
67 46 47 40 59 94 63 79 116 70 70 101 135 156 118 191 218 215 232 267 165 170 181 207 303 293 271 216 232 247 280 269 177 151 103 115 139 150 128 112 115 118 112 93 90 94 107 126 129 105 124 126 125 113
84 51 63 75 74 82 77 38 77 97 61 65 78 77 67 62 73 102 80 65 54 76 113 113 110 119 108 119 138 121 126 157 122 98 134 172 153 122 95 94 118 107 89 87 85 86 93 113 133 131 112 82 97 112
94 104 51 44 62 68 68 81 56 82 94 80 48 5 -2 11 11 9 -2 6 20 22 45 70 62 77 84 103 91 95 93 97 115 128 136 132 105 81 67 58 65 73 74 83 104 102 105 121 111 102 78 75 91 69
84 87 45 69 100 86 41 96 131 109 123 100 69 45 33 34 60 54 46 67 61 66 70 73 68 62 63 83 104 98 113 115 105 99 101 86 75 75 72 63 68 67 72 78 85 100 101 103 105 95 101 86 68 81
65 84 71 107 117 73 65 68 81 111 78 91 81 67 67 59 62 73 79 84 80 85 89 88 91 79 86 109 103 116 112 107 103 87 73 67 64 53 50 61 69 69 77 77 83 89 86 80 79 88 95 97 106 88
104 96 156 196 191 117 97 85 95 93 68 63 67 69 73 72 71 70 74 88 92 97 69 49 61 78 109 118 105 89 73 70 72 70 60 61 60 70 66 62 64 80 84 95 109 99 100 106 96 117 165 143 122 100
97 101 148 276 140 136 104 95 109 86 87 72 72 59 57 52 65 77 83 89 86 55 65 60 61 66 64 51 61 62 62 61 53 58 59 57 54 60 75 85 86 92 98 123 105 131 134 119 141 181 167 144 115 90
125 130 159 209 132 125 118 151 122 106 86 63 62 61 53 63 85 80 81 69 47 48 51 54 70 70 58 63 64 53 48 46 53 53 71 76 83 89 91 87 93 118 124 99 85 103 114 127 145 161 145 127 95 81
195 169 207 264 198 172 148 108 76 75 72 62 64 76 80 87 76 85 79 56 58 74 68 60 59 62 62 68 73 94 99 71 43 33 61 75 89 96 105 119 102 103 104 100 99 98 112 125 126 110 110 103 94 82
134 165 182 208 143 86 57 54 66 70 78 88 95 99 88 88 92 89 84 91 101 103 101 87 70 78 92 100 96 116 108 81 67 70 82 82 102 126 128 111 103 102 97 108 99 87 94 99 105 105 101 94 87 83
162 138 89 51 63 66 68 71 76 88 97 99 102 120 100 103 107 98 115 142 116 120 140 155 160 134 126 153 137 122 121 119 113 119 116 150 182 180 168 126 103 81 99 134 103 81 85 90 96 82 77 75 81 82
87 91 75 93 88 86 92 101 94 92 91 101 106 103 100 128 113 135 108 146 131 152 173 176 168 145 119 98 109 112 102 111 136 147 135 132 143 133 121 127 116 161 148 96 92 84 77 80 78 62 74 85 82 81
73 66 63 69 80 78 76 73 68 69 89 93 102 109 119 115 144 133 145 160 172 163 152 140 130 116 103 120 110 106 111 104 89 82 102 112 185 301 214 156 151 137 119 113 101 87 82 89 86 90 88 78 78 108
70 65 68 85 89 80 70 75 84 82 78 90 99 102 123 158 153 166 166 171 152 145 146 141 142 130 125 123 130 112 110 106 109 136 150 147 176 144 111 102 105 98 97 100 96 96 93 94 106 96 82 81 109 114
64 48 73 72 79 87 85 76 92 103 95 119 130 123 135 147 173 173 170 166 166 154 137 122 108 122 140 137 112 102 92 91 97 89 80 95 88 78 69 61 68 75 74 77 79 95 112 110 93 89 99 98 101 117
47 57 67 64 66 73 86 91 88 90 101 109 137 137 199 188 171 197 210 175 151 135 130 141 134 120 114 118 121 122 120 108 119 118 111 81 70 67 68 65 64 66 65 69 73 83 91 82 88 95 95 101 117 132
68 69 75 78 85 83 82 96 110 114 108 95 114 149 144 155 180 146 167 153 135 148 126 100 100 95 77 85 87 90 86 87 96 86 88 80 79 73 61 55 56 58 61 62 66 72 82 93 100 106 100 120 131 135
47 54 60 64 57 66 84 68 70 75 74 92 116 137 183 198 165 136 103 96 89 89 92 75 56 40 34 79 76 82 91 90 89 74 77 74 67 69 53 47 51 52 53 56 62 72 93 115 121 127 132 137 127 122

GFSWCAN_con_3kmhel_015.txt.gz
Helicity
127 114 124 126 126 114 102 101 100 95 95 99 111 126 149 158 163 105 86 94 76 83 95 131 189 199 159 190 154 101 203 163 172 162 131 112 118 107 152 135 118 145 165 147 179 165 103 70 202 221 166 255 263 293
93 88 110 127 126 118 109 106 106 107 105 107 116 129 150 168 176 123 108 108 98 77 60 89 114 178 209 187 146 124 91 96 120 144 134 131 139 145 156 161 166 201 158 140 187 143 102 111 149 229 284 240 300 266
112 99 96 109 118 119 117 114 114 116 111 113 122 136 150 176 193 143 104 122 104 90 111 117 128 151 154 231 202 144 140 89 130 121 127 124 119 126 143 135 178 164 196 240 261 163 133 152 288 321 376 373 311 230
252 161 131 117 110 120 124 120 119 120 120 127 135 143 157 182 205 163 98 137 112 102 102 100 91 110 135 198 195 163 119 211 215 175 147 131 120 108 135 136 190 140 220 214 221 218 217 302 335 392 400 353 256 184
275 321 239 163 134 126 135 129 123 119 121 129 144 159 178 199 210 143 104 130 126 108 68 83 115 91 112 157 140 148 184 197 200 196 182 138 145 175 202 243 243 184 185 213 190 157 209 290 343 324 314 259 207 186
282 238 304 267 192 131 117 122 126 121 120 135 154 169 194 222 212 141 130 135 173 154 134 115 99 93 112 151 154 137 151 172 183 172 152 161 182 185 196 232 212 141 95 107 176 232 268 304 265 220 221 164 214 275
97 117 197 272 237 182 132 113 112 105 114 136 157 172 201 234 185 179 126 123 181 164 143 138 108 150 140 167 216 216 225 211 198 171 168 165 171 203 237 261 197 157 159 230 293 381 341 257 225 188 190 203 212 230
106 115 118 165 250 206 164 144 109 95 95 95 115 139 163 167 153 172 150 118 143 170 169 170 153 166 168 215 225 253 244 240 220 225 252 199 214 256 267 235 187 152 130 270 355 343 260 226 178 188 207 270 276 235
59 74 79 91 117 185 223 155 100 82 102 97 101 115 126 152 148 146 163 159 141 157 169 215 225 157 202 236 218 205 207 195 198 252 248 256 269 287 229 168 143 154 258 336 347 319 252 167 143 254 317 281 234 199
59 58 61 56 51 53 77 107 117 121 113 87 137 133 137 128 160 141 131 152 176 190 236 220 226 258 228 210 206 197 207 196 204 199 209 242 263 273 236 194 263 263 346 325 301 238 167 275 331 291 248 194 172 148
73 63 66 56 58 61 36 60 85 132 178 186 176 159 139 137 136 158 150 161 178 217 199 241 299 346 294 290 260 229 229 230 197 168 211 204 218 119 133 157 262 315 260 190 277 323 331 315 258 200 174 138 113 113
104 100 84 52 53 59 23 37 68 83 138 169 161 200 195 187 154 142 179 237 208 192 311 279 333 405 426 380 332 265 293 263 200 259 285 253 186 285 340 326 357 282 299 319 327 354 318 235 174 156 119 88 95 105
111 113 98 52 51 77 86 87 85 62 82 129 163 212 195 190 193 207 230 318 342 384 351 332 342 297 314 316 302 290 260 293 371 391 343 315 317 279 291 396 317 281 356 358 288 220 204 149 112 83 62 78 91 89
73 75 78 72 48 54 81 98 102 53 72 112 118 150 166 186 245 284 283 290 282 244 210 220 235 191 280 281 283 304 376 448 450 418 377 349 345 326 257 182 203 194 202 172 154 148 135 71 67 67 83 89 93 93
53 37 47 61 50 48 50 62 78 55 88 109 111 139 143 123 131 117 109 140 165 142 171 219 265 260 288 264 317 376 404 437 397 385 396 273 144 133 149 140 143 137 137 142 122 100 68 60 75 78 75 75 89 113
66 24 28 33 28 25 35 36 37 41 81 113 130 111 73 89 81 63 66 84 97 132 182 197 231 257 338 377 354 399 405 448 355 193 25 12 28 48 93 86 95 108 101 93 79 79 72 80 79 73 83 86 100 126
52 22 25 24 22 21 36 24 43 64 65 84 111 94 72 74 54 55 62 83 70 119 151 185 254 287 254 303 327 236 270 132 31 14 13 12 57 103 130 138 119 99 85 79 88 93 85 80 86 91 80 94 113 116
54 22 20 18 33 31 25 37 56 61 77 51 60 47 57 67 67 66 60 76 85 86 99 100 82 136 140 142 109 78 58 49 59 44 58 76 94 105 101 83 84 101 101 83 78 83 87 93 95 124 124 123 123 121
76 54 44 71 69 51 62 57 58 84 90 55 59 59 47 40 45 38 39 50 49 47 64 71 69 59 63 56 51 45 63 62 57 56 66 67 67 63 66 73 68 73 72 75 84 92 101 104 132 147 154 153 166 161
73 79 70 65 97 86 102 84 65 86 81 70 84 73 67 58 47 46 47 44 43 46 58 55 55 69 54 52 57 63 58 86 98 102 89 89 99 84 66 69 68 63 62 61 78 93 113 130 135 127 116 130 122 99
70 55 78 36 108 95 99 82 86 74 78 91 83 95 102 77 65 55 56 54 51 38 52 37 45 39 61 75 92 105 124 123 102 89 71 84 86 85 74 70 67 71 80 82 97 117 124 142 127 116 112 113 106 141
63 69 54 57 80 113 104 98 80 87 106 79 104 93 73 58 45 56 60 58 39 42 54 59 66 80 87 91 83 83 96 121 119 109 102 99 106 104 97 84 92 85 101 121 124 139 140 139 129 122 103 76 89 130
66 61 39 30 55 64 102 160 114 88 85 71 92 90 70 68 61 59 57 42 46 68 82 106 114 102 114 111 95 121 138 120 115 126 150 131 111 101 95 94 110 118 111 108 135 146 136 131 144 133 136 117 97 99
62 51 -1 26 55 77 124 146 141 139 111 97 93 91 82 71 71 78 70 76 144 150 159 170 137 134 125 178 284 283 237 167 145 135 117 68 55 73 87 91 100 117 157 124 103 110 114 129 153 122 89 81 88 102
45 38 15 48 87 105 110 143 186 155 132 123 133 111 78 80 73 62 69 115 119 156 168 212 294 286 331 278 201 171 166 134 109 94 91 90 84 98 109 122 123 181 140 117 111 101 93 95 84 62 65 81 99 88
18 19 41 39 68 85 102 145 135 138 143 143 124 92 78 85 86 73 133 134 126 129 141 188 226 193 208 178 155 144 117 86 85 79 81 140 154 171 159 137 129 117 104 108 101 94 85 84 87 86 82 88 82 79
15 7 40 73 95 125 136 168 191 179 166 156 95 68 77 66 63 126 135 167 137 120 87 111 148 171 174 170 153 151 130 101 112 112 118 191 218 180 147 138 131 101 99 100 97 99 94 93 88 91 100 89 85 90
45 52 62 82 86 75 65 77 71 61 49 71 102 90 91 112 123 120 118 112 126 133 139 154 165 174 165 138 151 147 132 152 161 172 192 237 143 114 133 139 134 156 132 126 129 126 123 115 119 97 96 100 110 208
58 55 39 38 38 44 50 54 59 83 93 82 86 105 120 130 119 119 123 137 148 181 191 178 192 182 189 201 172 148 129 120 152 173 178 140 127 129 126 119 119 118 113 111 118 125 128 138 106 111 110 171 163 188
36 24 33 41 50 51 58 74 69 79 105 109 104 122 132 126 153 188 173 163 184 202 202 183 164 180 174 178 176 175 99 57 46 71 83 86 95 83 74 74 79 84 84 86 94 103 114 117 121 151 133 110 116 107
10 22 44 55 59 59 62 67 71 88 110 123 146 169 153 130 144 160 193 187 161 190 203 195 167 151 164 166 141 112 92 87 104 94 72 63 72 53 46 60 69 75 79 92 100 99 119 75 79 95 102 104 111 94
44 55 48 52 58 64 68 79 83 87 89 95 129 140 130 141 166 136 135 153 135 142 141 137 150 139 108 77 84 100 149 113 77 67 61 58 48 43 40 54 60 68 89 101 118 137 106 74 78 93 82 79 76 83
51 53 57 63 59 55 68 68 53 69 84 110 165 171 174 160 147 116 92 100 102 108 116 102 80 78 80 94 104 102 72 59 82 82 72 82 58 51 66 84 84 81 87 114 131 111 95 79 67 70 76 82 78 75

GFSWCAN_con_3kmhel_021.txt.gz
Helicity
133 128 116 114 104 113 126 131 136 114 102 138 170 225 268 223 140 72 97 103 75 110 166 150 135 134 131 137 144 110 181 136 156 157 137 108 125 97 145 133 102 110 125 140 213 218 166 173 323 204 108 163 109 135
139 130 120 117 130 120 138 141 128 118 128 126 174 211 256 242 168 103 131 141 119 109 119 143 144 137 110 73 123 136 94 83 98 159 142 137 155 149 167 158 178 171 152 128 138 118 118 67 108 108 164 185 178 210
117 142 143 141 132 139 152 129 121 129 141 147 163 196 211 213 165 96 121 136 124 128 154 149 178 182 163 125 94 131 137 106 111 106 112 133 163 166 168 134 172 126 156 171 194 117 109 104 74 160 170 199 241 287
123 147 156 146 140 148 147 125 124 132 140 153 176 190 204 192 151 115 126 142 106 108 114 123 155 160 187 160 113 115 113 179 162 152 152 145 158 114 144 151 157 109 140 122 158 119 145 136 145 177 235 265 317 354
140 160 140 145 143 140 136 130 119 122 131 141 162 187 193 165 149 128 127 153 106 89 69 120 143 168 185 152 145 150 177 168 165 175 167 129 135 171 188 207 179 179 196 218 180 127 151 130 137 184 275 326 342 332
166 130 164 156 174 136 132 126 122 125 132 140 154 171 170 128 116 124 127 119 152 106 95 100 89 143 184 168 195 200 169 159 165 141 126 125 160 181 156 157 106 148 144 156 150 104 151 158 152 235 263 280 303 337
161 156 173 165 159 147 130 122 126 135 140 145 164 178 148 116 103 109 78 92 158 109 101 113 111 138 139 158 160 165 177 164 165 160 156 162 179 204 203 192 200 164 143 127 164 217 193 179 159 212 281 365 447 504
257 168 162 151 149 148 141 128 126 137 147 154 181 176 167 142 103 143 164 167 153 130 141 130 125 132 158 159 162 166 164 172 187 184 185 182 220 226 185 180 142 111 105 110 124 178 161 196 258 371 435 531 603 572
287 245 204 155 137 124 128 134 139 156 165 174 198 163 169 163 149 140 209 165 161 144 138 158 144 102 139 159 156 145 155 162 174 197 195 194 222 246 181 155 146 132 119 112 165 206 246 341 443 486 617 760 496 155
279 288 220 168 145 135 120 120 135 152 165 194 192 194 183 167 164 177 160 162 192 211 222 185 183 169 134 128 144 142 152 153 166 153 180 211 253 212 148 141 127 124 134 174 227 256 390 470 582 677 495 163 134 162
170 258 281 253 192 139 111 104 117 134 177 197 202 190 146 188 158 181 181 193 198 209 213 218 195 180 182 161 148 146 153 157 136 132 182 204 208 207 211 204 208 212 261 298 341 468 495 459 424 324 164 162 125 112
114 125 166 209 222 207 180 141 161 159 148 133 115 148 162 175 167 163 202 207 204 153 180 144 138 162 166 152 150 143 157 170 134 184 234 225 233 230 269 304 312 329 378 419 443 486 460 358 187 164 117 132 109 71
118 144 154 163 156 157 177 199 209 144 147 162 152 148 133 147 137 129 166 206 192 215 231 174 139 132 128 142 173 173 164 195 232 235 253 278 270 248 226 200 231 183 163 162 154 102 97 124 129 102 43 35 47 85
114 121 146 154 149 142 121 91 93 131 171 221 218 216 205 168 190 265 258 201 148 130 120 115 112 112 115 116 124 148 182 215 240 300 328 321 280 239 301 274 211 151 92 62 4 17 21 12 22 34 53 74 84 72
128 142 159 196 153 144 111 71 61 50 76 119 125 162 174 149 156 127 130 143 151 136 121 118 123 99 146 139 155 183 214 292 350 391 358 302 282 232 207 193 210 171 97 47 23 41 39 43 46 41 45 62 72 73
62 90 186 166 167 144 122 92 90 73 95 98 114 124 103 136 143 126 119 123 83 79 84 89 117 133 159 187 204 244 266 313 255 244 208 164 130 76 70 36 15 19 -6 -2 38 57 60 60 60 74 83 79 76 65
38 33 102 99 112 89 93 63 87 121 104 119 128 139 121 134 116 105 103 107 100 135 172 162 150 125 145 138 160 195 207 226 177 135 84 68 62 28 3 -8 6 28 51 66 70 76 74 70 69 77 87 82 79 82
41 46 62 77 59 43 48 44 33 41 68 77 106 118 126 134 125 128 116 109 93 92 98 117 105 181 179 168 153 118 79 27 -8 -47 -30 -14 12 18 27 51 66 71 68 64 59 62 76 90 91 88 83 77 78 87
24 47 80 91 51 12 18 31 34 46 48 59 72 83 80 85 90 70 63 80 72 64 76 91 113 113 101 83 88 71 41 28 26 28 35 48 45 61 82 82 72 75 83 99 115 114 100 90 80 85 86 92 94 111
36 73 104 77 64 41 45 45 49 45 51 43 70 82 81 77 70 71 69 70 69 81 103 105 88 86 89 82 67 70 67 57 85 87 98 102 117 130 147 141 141 134 128 130 117 106 94 80 80 90 102 110 115 130
60 72 75 61 64 87 58 61 78 61 66 83 82 97 98 110 110 100 99 91 116 122 125 90 94 101 95 115 101 88 99 95 100 95 100 148 182 203 200 182 153 127 99 89 93 82 94 88 96 101 105 118 133 134
34 42 43 54 78 102 105 122 108 113 123 99 112 108 118 130 132 114 101 114 113 114 124 127 125 119 154 150 148 154 125 158 183 198 220 196 183 175 157 145 132 124 113 124 111 105 96 101 103 102 106 114 114 119
44 51 60 69 102 130 117 114 141 135 155 142 141 146 131 130 111 109 125 105 124 114 113 131 147 181 208 209 225 282 258 208 220 224 202 175 151 145 138 135 117 115 115 111 106 104 101 106 107 105 99 95 96 104
43 66 82 109 109 117 103 136 120 136 153 153 142 134 103 102 88 123 116 99 96 108 132 142 128 186 207 215 221 241 244 202 176 183 159 121 129 149 137 147 141 141 139 113 108 106 98 95 88 85 89 96 113 126
74 70 86 92 88 111 119 121 135 158 147 129 137 122 65 60 92 86 84 92 122 136 144 176 220 191 181 178 172 186 202 180 153 142 156 145 145 172 190 180 151 147 139 123 111 92 76 71 78 86 90 97 107 102
21 27 34 30 47 63 50 61 54 63 98 85 74 87 78 78 87 82 99 120 138 146 129 132 130 146 176 175 162 157 151 131 113 138 146 153 157 134 143 149 143 125 115 87 74 77 83 74 72 70 73 87 88 94
9 9 24 35 41 36 -0 1 32 53 49 48 64 87 83 79 91 115 105 127 117 133 133 121 114 133 128 127 126 120 110 108 104 136 128 138 132 115 91 84 94 63 73 85 83 70 69 66 65 69 83 103 78 87
73 86 54 42 47 43 44 56 67 57 64 67 72 68 50 72 111 108 91 101 118 120 126 119 121 126 145 144 133 138 152 120 133 126 119 119 97 80 77 71 90 95 97 93 78 81 87 78 75 82 106 113 122 133
2 1 26 16 20 24 23 16 15 31 31 29 44 52 55 59 65 79 100 102 111 113 118 126 149 142 154 153 156 152 167 192 197 190 169 139 135 119 122 103 81 80 79 77 63 74 72 72 86 107 124 155 148 130
12 10 15 9 5 23 35 14 14 16 39 50 54 59 70 82 104 108 108 130 146 162 162 164 150 152 149 151 164 176 149 116 96 101 106 99 97 87 71 57 57 62 60 57 68 80 78 111 107 109 117 139 134 107
-1 11 21 31 36 23 -5 14 37 55 69 76 91 100 103 102 122 152 151 134 143 149 159 173 183 165 169 182 168 151 116 77 83 79 67 60 64 63 57 60 63 59 56 66 66 66 78 79 91 84 96 105 97 82
51 61 60 54 53 53 78 75 71 85 89 96 114 116 115 127 130 126 119 128 150 168 134 119 155 137 95 81 69 53 56 55 57 50 58 66 75 66 59 55 57 67 74 70 68 77 86 96 93 91 94 86 68 56
73 85 92 85 86 89 85 88 97 81 96 97 112 124 135 133 134 110 99 112 98 87 105 93 79 67 50 55 60 51 46 43 49 61 78 77 69 59 50 53 67 80 77 71 76 86 94 102 97 89 86 70 58 52

GFSWCAN_con_3kmhel_024.txt.gz
Helicity
122 118 105 91 103 104 78 87 96 95 115 145 187 177 117 67 61 71 104 103 98 127 210 183 175 156 140 154 152 114 222 131 138 147 132 103 118 88 127 118 99 107 116 116 175 210 156 134 234 166 83 85 67 47
112 84 94 113 117 94 89 101 94 119 136 162 167 173 142 132 167 162 178 104 107 146 145 176 178 152 112 78 118 131 95 93 98 166 141 139 164 166 176 158 169 157 137 143 148 139 113 -2 62 80 135 139 117 132
107 120 132 129 95 89 101 113 122 117 142 162 162 197 175 145 83 51 80 109 119 145 189 172 178 192 175 125 84 128 133 101 122 123 119 145 168 172 177 138 182 122 149 179 180 100 94 86 59 85 129 139 159 173
137 147 123 96 86 105 115 108 123 141 135 161 165 189 195 170 128 149 137 154 113 120 118 142 164 160 203 147 109 115 108 186 165 158 159 145 155 110 148 155 154 117 138 144 147 88 105 88 118 97 157 194 198 210
150 136 96 102 107 129 131 121 140 144 139 185 176 159 182 219 201 188 174 202 142 96 81 131 130 171 212 152 165 173 176 151 151 165 152 120 140 176 200 211 165 197 198 192 155 131 155 109 99 96 121 137 177 275
142 135 122 118 133 138 119 131 132 143 167 160 171 154 156 158 152 160 153 157 196 127 97 115 118 150 190 195 233 220 179 160 160 136 124 133 164 176 170 159 89 145 141 139 139 113 88 106 107 107 153 193 240 298
135 145 144 125 128 143 114 127 127 142 168 179 155 142 147 136 144 144 104 134 194 123 103 116 110 119 132 140 143 153 161 142 139 138 155 159 172 187 195 187 141 78 80 89 100 136 121 124 111 130 196 291 379 433
156 151 162 124 127 141 115 125 129 139 152 160 150 141 130 102 84 155 199 193 168 97 108 97 101 99 131 123 127 140 142 151 175 166 164 169 186 189 149 103 104 97 83 81 78 87 115 119 179 258 296 378 518 644
184 153 139 146 144 177 97 106 124 132 163 181 148 146 142 143 126 115 181 168 140 115 113 120 102 66 100 118 128 131 146 150 152 176 171 167 188 171 198 150 124 126 105 84 109 128 179 256 325 403 510 612 723 672
267 216 189 185 164 200 124 87 117 148 191 171 174 149 137 142 154 145 132 126 157 171 176 151 132 139 125 129 144 143 149 148 149 141 147 177 198 240 211 118 80 65 80 113 135 186 285 346 392 487 470 531 501 370
285 234 188 150 147 142 136 120 156 193 189 183 164 150 132 182 150 151 155 166 171 169 160 183 174 176 173 158 145 145 150 141 126 138 167 202 228 215 206 180 168 165 200 248 292 395 382 384 397 380 363 283 201 157
323 314 271 222 162 123 118 154 189 169 165 150 111 147 170 176 173 166 209 187 180 128 177 141 158 172 168 138 144 135 152 166 167 174 208 207 217 199 192 203 178 164 215 250 292 327 317 313 265 146 123 54 62 49
196 231 301 281 239 198 198 179 182 130 132 177 194 191 168 180 208 194 221 215 170 178 172 135 133 126 146 158 170 151 150 177 179 205 232 274 220 204 204 216 244 203 185 177 168 91 23 -7 15 29 27 12 -4 11
103 137 172 209 205 238 246 226 221 173 158 168 180 191 177 169 188 210 213 166 150 145 130 128 133 125 121 139 136 170 185 193 228 255 284 262 207 218 237 223 206 166 70 51 50 70 78 58 27 18 31 37 47 57
100 150 197 263 157 114 99 124 150 199 181 153 169 163 184 175 187 177 178 173 148 117 118 121 125 115 126 142 156 179 192 242 243 219 204 168 160 194 207 194 141 102 44 44 36 31 15 19 49 52 49 43 41 40
75 95 239 252 161 122 82 67 80 65 92 128 151 189 146 183 169 142 140 128 100 107 114 109 120 135 133 160 202 194 214 169 128 129 165 163 171 144 82 22 25 37 20 13 30 49 51 46 44 48 59 60 61 49
66 83 217 195 124 96 103 85 94 100 91 109 113 118 104 118 117 109 94 89 79 108 136 130 152 142 153 194 236 239 229 179 175 168 142 108 76 26 16 2 8 24 39 38 41 58 72 81 81 89 99 89 80 78
40 85 106 113 69 63 72 75 85 106 127 119 114 121 126 137 132 131 113 101 98 109 119 144 121 188 188 184 155 107 85 65 60 57 46 36 64 64 50 51 52 59 72 89 105 119 119 124 115 97 90 78 58 50
35 60 85 80 28 10 19 34 32 48 62 62 80 98 105 108 105 91 81 86 74 68 80 91 109 94 92 85 90 73 65 45 36 56 76 96 104 100 104 108 113 120 134 133 143 128 120 122 112 97 85 77 73 78
59 85 135 78 44 26 30 32 33 33 46 45 67 76 76 76 68 62 63 69 77 77 95 99 91 89 93 86 77 81 77 79 102 121 136 151 141 160 167 146 144 133 130 136 123 118 102 94 89 83 89 93 98 107
39 65 70 47 55 67 48 50 53 36 40 64 64 76 71 71 92 97 93 85 109 116 119 103 120 127 138 154 153 125 133 95 105 105 128 163 170 169 158 152 137 123 120 106 93 98 100 98 91 97 100 103 113 116
35 59 29 51 57 68 69 88 65 62 78 67 81 86 83 101 108 113 113 135 137 116 124 140 153 144 170 170 172 178 143 162 172 192 237 198 169 159 161 149 127 115 104 96 97 105 100 100 109 112 109 105 111 112
12 25 29 52 53 82 68 78 88 86 90 83 94 99 95 106 114 107 145 135 123 119 130 141 167 195 191 180 197 233 215 185 202 200 188 176 166 141 128 128 111 107 111 132 127 116 115 116 113 114 110 115 115 112
10 40 49 72 94 69 43 72 56 86 99 95 101 110 103 99 89 136 144 128 119 107 124 134 148 177 184 199 214 208 200 166 182 210 195 156 150 149 133 123 117 120 124 107 111 118 117 116 114 122 124 122 101 87
63 72 77 79 60 90 118 123 130 132 134 122 140 134 103 104 137 137 137 124 114 130 144 149 158 155 158 154 154 172 188 164 141 151 169 146 127 132 131 126 121 122 116 128 132 120 113 119 128 127 95 79 69 74
53 7 38 27 25 48 34 85 96 82 80 83 58 80 82 83 104 125 115 118 126 147 161 139 113 138 168 157 134 134 131 116 109 130 135 145 146 125 127 124 125 113 108 92 89 108 116 104 92 82 75 76 72 77
21 5 7 11 11 10 22 30 32 30 27 18 46 56 36 44 72 94 83 135 114 125 128 123 99 106 110 119 113 110 103 115 138 139 126 127 110 85 68 83 84 63 74 92 91 84 78 73 71 68 69 76 57 74
7 33 33 17 30 35 29 36 33 34 41 53 66 74 56 70 61 56 70 67 83 93 104 116 122 126 137 133 128 120 137 143 161 143 130 118 97 81 71 66 75 79 84 77 68 71 81 77 75 72 65 64 68 73
26 38 32 25 16 30 32 17 12 16 22 31 40 38 39 42 44 54 69 67 81 86 92 96 121 119 131 138 155 160 161 124 128 146 132 106 111 88 99 102 88 80 81 84 76 76 65 72 82 88 86 92 90 91
5 6 20 12 18 18 22 23 18 3 16 39 49 52 57 67 94 98 95 109 118 125 118 117 109 110 111 125 128 139 137 118 88 98 96 81 69 70 70 70 78 83 87 85 79 84 84 104 104 116 116 119 109 103
7 24 37 46 49 47 18 19 49 65 68 73 72 77 76 79 107 139 138 120 117 115 129 150 159 124 138 136 124 126 115 67 62 44 43 48 42 53 59 65 67 68 65 63 68 73 77 80 84 86 95 102 88 87
38 48 47 53 58 58 78 88 83 95 104 100 104 103 97 103 106 105 113 105 127 151 129 121 127 103 70 62 58 47 49 46 39 41 34 40 48 61 63 62 63 71 71 66 67 72 75 76 70 79 84 84 75 74
54 59 69 70 63 78 87 92 109 92 110 110 110 95 102 101 93 86 88 95 93 100 100 84 73 62 46 45 47 40 34 38 27 20 28 44 56 54 60 61 63 70 70 67 65 68 70 69 71 74 79 77 66 70

GFSWCAN_con_3kmhel_027.txt.gz
Helicity
101 196 118 101 113 78 83 82 75 80 78 75 84 89 90 81 124 149 125 90 70 96 163 169 153 167 192 196 163 134 204 132 136 141 114 89 95 88 105 95 74 88 106 105 139 155 102 75 108 111 89 66 76 78
97 118 143 143 90 92 85 91 80 67 77 89 86 77 90 57 76 77 69 72 93 113 139 180 134 149 139 113 151 142 105 104 105 157 119 114 140 137 136 109 104 109 105 114 100 109 95 30 64 84 116 107 115 143
121 144 116 101 109 96 99 81 71 85 102 108 93 84 79 85 94 70 69 92 131 145 193 181 193 186 172 145 110 125 138 98 118 125 110 133 141 129 138 105 126 77 112 132 140 78 65 58 62 93 127 151 145 128
155 125 110 108 110 103 104 101 99 111 108 108 95 101 114 115 134 173 126 63 91 144 126 174 207 193 253 168 118 111 108 184 159 145 151 139 144 98 128 128 112 104 138 123 110 66 90 72 87 64 79 93 106 136
147 131 120 114 104 119 121 111 128 139 134 125 133 164 155 146 147 186 69 86 83 72 96 159 165 200 225 148 162 169 182 154 135 145 140 124 133 150 162 159 110 158 129 143 122 103 98 84 67 65 76 94 102 136
114 115 100 97 106 115 139 142 142 147 127 137 184 146 149 190 226 137 90 132 158 111 65 136 130 173 214 209 246 231 185 161 143 127 129 148 162 164 163 124 82 76 77 98 103 91 79 78 73 85 100 117 152 204
118 99 108 107 127 159 108 143 162 141 140 128 161 166 143 100 140 106 77 149 180 126 107 120 124 147 156 151 154 174 182 154 150 140 159 165 163 163 168 145 137 113 101 77 84 89 95 140 124 153 190 257 344 403
81 89 100 143 169 218 105 127 155 163 153 150 136 157 134 118 104 198 260 267 185 109 127 104 114 104 124 101 107 130 126 137 167 153 154 163 166 163 133 165 148 140 133 103 140 111 135 160 184 205 222 293 490 572
135 119 127 138 164 173 120 122 128 150 132 129 113 106 150 173 151 153 229 202 160 116 117 111 82 60 80 92 103 113 133 144 136 164 168 134 155 202 181 145 153 149 91 49 107 168 203 219 217 234 311 434 481 429
177 169 151 161 200 241 153 104 136 165 147 131 120 131 142 146 181 158 141 130 149 158 140 106 91 96 95 107 132 135 141 152 139 154 135 171 225 215 187 147 106 100 138 104 80 128 180 224 272 300 320 308 371 390
249 194 173 158 150 172 208 170 165 179 154 129 132 139 126 174 110 116 120 122 125 118 115 117 120 124 138 139 150 150 151 141 135 151 157 186 223 204 171 161 115 111 121 145 192 237 255 257 237 211 190 164 129 67
345 269 193 145 133 147 203 192 154 134 123 98 62 124 147 152 128 131 162 143 136 107 140 142 165 191 189 152 154 145 163 156 173 184 214 222 224 224 195 179 144 98 57 68 70 82 84 89 75 41 10 -21 -42 -48
316 314 295 273 219 198 180 204 188 119 116 141 121 124 114 140 153 138 133 161 170 163 155 142 166 157 147 152 157 138 146 208 194 202 232 267 248 198 185 186 157 114 100 103 90 71 53 35 8 5 4 14 25 38
206 232 303 278 216 201 218 195 171 137 156 128 140 177 172 152 174 204 186 159 140 127 126 132 142 129 151 166 158 183 182 173 183 197 217 194 162 148 164 157 140 121 104 96 90 63 47 40 40 45 49 44 52 66
52 106 171 305 242 180 164 198 189 139 138 142 164 163 180 167 173 142 143 127 139 144 147 151 151 132 136 141 148 165 172 199 177 153 135 103 110 162 170 143 140 103 67 49 38 43 48 51 63 68 80 82 83 78
45 91 199 207 100 65 76 161 212 178 153 162 198 173 145 167 166 176 180 187 182 159 129 119 121 125 143 150 164 155 174 167 147 135 97 91 100 111 95 50 54 55 50 68 70 68 73 76 75 68 74 87 80 70
98 116 251 173 80 76 85 55 53 96 95 146 188 150 157 150 131 92 79 79 72 93 120 108 139 138 139 160 196 183 162 96 68 82 67 64 70 61 43 55 73 95 89 77 80 97 103 90 81 97 110 100 82 77
49 124 157 135 65 91 109 103 84 82 102 93 102 112 110 109 100 111 104 105 106 122 135 155 122 159 168 162 133 95 73 57 53 80 86 87 84 72 71 86 100 99 108 117 121 122 123 119 117 97 93 80 68 75
30 46 60 65 18 18 42 70 79 87 95 99 105 121 129 135 136 115 121 115 102 96 118 146 164 131 107 86 73 53 45 54 74 101 118 127 123 139 150 153 148 147 144 140 131 117 110 117 102 86 75 75 84 97
41 77 127 81 12 13 29 31 18 32 49 44 58 74 75 80 73 74 76 95 85 85 104 107 94 83 75 76 74 68 65 81 125 157 169 189 187 209 209 176 159 150 141 132 123 116 99 88 84 81 91 100 107 111
50 92 93 36 48 43 24 29 34 25 27 41 46 54 54 51 60 69 73 68 89 94 100 88 92 108 130 145 148 137 159 119 131 117 138 168 183 197 191 177 159 154 136 115 94 83 85 94 106 115 117 118 113 108
28 52 21 55 42 48 50 69 44 39 53 49 61 67 69 77 84 92 95 103 103 108 120 121 124 124 161 178 178 189 166 170 182 207 258 231 195 192 191 172 145 129 110 96 90 97 103 113 120 126 119 116 120 130
-4 10 21 52 51 76 53 63 74 72 66 61 64 75 78 80 85 84 118 119 113 110 120 130 155 183 199 197 204 219 193 178 202 200 195 193 185 172 157 140 117 110 105 110 113 116 114 121 122 125 136 143 126 115
-5 17 41 64 88 90 65 106 76 99 103 103 103 108 101 103 92 133 142 136 124 114 125 132 139 173 195 190 184 170 175 167 171 187 172 144 142 138 120 113 110 116 122 112 113 120 121 125 139 151 133 123 108 94
27 47 59 58 44 60 72 78 97 111 121 83 95 93 78 82 118 139 147 130 123 125 136 136 143 152 145 140 149 164 179 147 138 151 165 142 121 112 121 124 128 133 127 131 142 136 140 135 143 126 117 104 84 68
31 -4 3 -5 -16 -6 -21 13 31 47 66 69 25 10 29 58 92 100 92 102 101 137 170 157 120 121 143 132 113 117 126 117 106 116 121 135 144 131 134 134 131 128 124 105 102 114 119 114 110 107 94 84 76 75
5 -5 -13 -12 -11 -12 -10 -19 -21 -24 -6 -10 6 16 14 30 46 38 44 77 78 96 102 106 85 81 85 92 94 95 100 116 126 126 128 146 145 133 120 122 117 92 92 101 98 100 98 95 88 75 68 73 82 88
-6 6 20 -2 11 18 31 36 36 32 34 30 33 49 37 40 41 40 50 42 50 55 59 73 83 86 94 97 88 88 117 133 156 147 136 125 106 99 89 74 76 81 89 92 92 92 91 83 69 64 70 78 79 91
-20 -33 -0 1 -14 -8 -0 8 14 21 16 18 33 40 46 51 43 42 53 57 62 65 71 72 82 80 98 118 144 151 132 110 119 143 144 125 116 94 93 99 98 91 92 95 94 88 73 75 85 85 87 82 81 88
-24 -30 -8 -9 2 4 16 23 14 24 33 49 61 69 74 75 93 91 92 104 105 103 92 91 84 81 86 95 105 126 128 123 112 121 109 93 77 73 75 80 76 77 84 87 91 91 90 97 92 98 99 99 100 99
-5 12 21 24 23 35 31 20 42 65 73 85 89 91 89 76 94 124 123 105 97 94 98 112 126 114 129 135 131 130 124 91 81 62 53 56 61 61 64 63 71 78 82 83 81 79 74 75 82 84 89 92 92 90
24 31 29 30 29 41 63 79 71 90 105 106 109 98 97 95 95 73 95 85 99 120 114 116 128 119 81 75 72 63 59 66 69 64 54 63 65 67 72 80 83 78 77 76 75 71 69 72 72 75 75 76 75 78
42 47 56 53 54 68 74 84 104 92 121 111 108 90 88 83 76 68 71 86 99 112 119 107 80 68 58 53 48 50 49 52 51 49 50 50 46 56 70 75 72 70 70 72 72 71 71 68 68 69 67 66 68 73

GFSWCAN_con_3kmhel_030.txt.gz
Helicity
89 116 155 160 173 283 189 180 190 148 105 90 88 93 78 36 56 220 183 205 143 125 106 159 131 136 169 164 165 141 178 132 117 84 75 63 56 59 59 80 58 67 87 91 119 119 82 87 64 89 138 95 99 95
109 107 190 240 138 93 174 144 88 72 75 82 85 74 61 40 78 189 182 177 160 101 113 113 137 149 164 192 172 107 145 107 97 127 118 95 94 92 90 66 75 83 92 113 83 115 112 39 77 104 112 106 95 102
167 137 142 146 153 131 96 79 68 65 72 79 74 70 61 59 131 179 145 112 129 115 127 136 151 169 177 177 173 131 135 103 126 150 105 112 109 91 104 85 101 69 82 109 99 70 48 43 62 69 70 66 76 81
137 159 170 151 124 99 85 81 82 84 79 69 60 70 75 60 138 131 97 101 119 121 111 155 162 147 212 179 139 139 111 167 158 151 133 120 130 87 109 115 99 110 67 75 74 51 82 73 81 77 87 90 94 96
183 151 122 117 109 94 94 107 95 78 73 65 61 64 93 169 154 113 93 78 53 96 109 170 145 181 191 132 124 108 122 158 155 147 137 135 130 127 144 127 108 86 132 120 117 132 91 87 97 90 86 105 116 121
135 118 130 127 137 132 135 110 88 92 114 89 89 121 184 131 94 129 166 -9 51 76 106 166 151 193 223 202 215 224 194 177 168 158 146 144 136 134 141 125 163 163 155 143 110 80 73 89 135 144 151 150 159 193
138 135 113 118 135 121 126 121 123 144 158 172 162 213 211 182 229 162 99 82 79 82 66 144 146 166 201 185 182 198 199 172 167 154 168 156 149 143 148 155 178 152 146 145 159 124 117 188 159 167 178 215 280 333
117 115 122 117 130 166 152 184 168 169 169 170 170 164 140 133 142 103 93 133 118 79 102 97 116 131 176 149 150 169 156 157 184 155 147 163 174 185 177 207 189 172 162 165 161 141 157 179 208 228 218 209 284 353
122 128 153 160 173 188 320 195 181 154 130 114 101 111 200 194 103 123 207 226 158 104 101 109 97 93 128 124 129 124 137 141 133 166 172 150 185 201 214 192 194 201 162 112 143 170 186 204 206 215 266 340 342 289
150 140 142 166 232 183 182 124 191 182 183 160 198 193 179 162 221 201 142 129 134 144 137 103 122 111 111 109 122 115 125 132 128 154 155 216 254 257 209 160 119 105 101 59 128 148 171 192 151 132 123 121 126 106
165 175 185 189 231 207 206 156 127 148 115 191 219 166 156 201 140 127 128 139 146 129 125 118 117 100 113 106 122 137 125 130 121 155 156 187 214 204 190 135 86 93 124 146 143 71 47 39 35 62 71 65 55 34
172 178 192 174 168 186 216 211 125 101 109 78 76 117 145 161 146 157 170 139 126 109 121 119 139 142 140 129 135 143 167 162 161 169 193 191 219 228 192 144 132 122 91 75 66 72 84 92 87 81 62 44 46 42
224 198 184 196 163 134 143 178 162 116 166 186 175 160 164 199 157 134 104 123 130 113 121 146 178 170 165 167 172 156 144 196 188 181 218 250 235 202 132 98 99 96 109 109 112 104 92 91 88 84 78 69 57 75
260 266 252 239 221 212 182 161 119 151 122 169 186 184 145 106 127 125 133 112 117 127 141 169 191 167 169 178 174 166 174 168 168 191 187 160 148 141 128 116 121 142 143 147 137 115 103 93 93 80 78 80 86 92
225 271 254 376 241 198 179 149 131 92 107 96 100 131 133 101 120 118 128 131 134 134 154 168 163 144 150 143 156 168 158 182 168 160 137 116 117 131 144 139 153 154 125 113 108 111 106 92 92 107 103 100 97 89
40 172 293 305 248 229 263 208 173 131 138 138 145 132 122 151 168 160 165 168 182 176 168 172 149 145 167 166 169 183 189 183 151 152 129 93 94 121 132 141 137 126 121 124 124 122 114 117 112 103 100 102 85 84
53 53 153 85 26 57 107 127 152 138 117 152 154 177 161 176 158 155 153 163 173 190 188 156 156 157 129 142 167 158 190 153 104 86 62 60 79 96 113 114 117 132 145 136 125 129 127 115 106 111 113 98 80 70
95 138 136 86 39 52 56 47 90 135 180 166 171 166 132 127 116 109 96 88 77 83 97 125 108 150 164 173 157 130 106 113 90 100 101 90 81 94 102 125 135 140 146 136 126 122 120 117 116 106 90 81 59 75
13 52 74 70 26 36 61 89 82 100 114 92 89 104 113 112 120 102 104 120 125 122 126 149 169 173 164 156 143 126 108 102 116 117 122 126 139 146 152 170 168 150 139 135 132 131 129 134 118 98 85 74 74 81
5 71 104 62 -12 -0 32 48 43 77 98 89 99 115 109 109 101 118 138 145 134 133 156 166 167 143 124 110 109 94 82 88 115 144 150 160 166 176 176 165 159 149 146 145 155 150 125 111 105 94 90 81 88 108
29 84 86 34 48 39 26 36 43 46 40 57 55 59 60 48 58 66 77 78 86 102 107 102 98 102 115 126 134 134 143 103 118 110 126 154 167 184 189 187 180 170 165 162 152 134 118 108 97 95 101 116 126 113
35 52 30 61 42 42 46 70 52 47 53 57 64 60 72 82 85 87 80 97 100 104 104 108 110 118 150 176 178 177 172 183 193 217 233 211 192 194 199 186 170 177 169 150 128 111 101 103 104 109 122 126 116 135
20 40 69 83 62 79 67 61 69 77 72 74 65 75 88 90 98 86 120 122 115 106 101 109 130 144 158 175 190 217 200 173 177 182 188 189 197 199 196 193 177 158 136 127 107 106 112 111 128 121 119 122 130 135
33 67 84 88 117 109 74 104 81 84 80 81 79 84 95 100 86 111 132 137 140 127 110 106 108 141 187 231 242 236 206 148 165 190 170 155 164 171 158 149 137 131 125 115 120 121 124 125 118 123 133 138 143 128
61 80 84 111 77 78 93 89 112 103 112 95 83 90 97 90 117 125 133 119 137 150 142 135 140 150 154 151 136 150 178 145 141 152 157 140 125 115 121 123 132 145 137 133 139 131 126 120 126 136 132 125 123 105
78 62 43 37 11 22 4 17 26 44 43 56 58 28 14 41 77 103 53 53 68 93 126 148 122 117 131 120 101 118 128 123 110 125 135 144 151 147 154 154 144 147 134 124 118 123 122 124 120 114 110 110 101 85
35 17 -9 -18 -9 -0 -2 -5 -9 -9 -12 -14 -2 13 -1 1 8 27 31 41 47 59 70 73 72 67 66 71 77 93 103 121 132 131 129 150 166 169 165 163 155 134 105 104 90 91 94 94 91 89 87 86 84 87
-5 -5 -1 -15 -20 -13 3 4 6 11 9 7 2 13 18 30 41 50 58 50 49 43 45 55 70 76 85 88 93 99 120 126 132 133 132 128 120 126 123 107 96 83 73 82 83 76 79 75 75 73 74 76 76 82
-13 -32 -32 -19 -30 -18 -8 -3 4 6 -1 2 20 40 51 56 55 61 64 63 62 62 74 81 91 91 102 113 129 141 142 133 126 124 127 124 117 114 98 90 89 93 90 84 75 73 74 75 85 79 76 76 80 78
-9 -27 -13 -8 1 12 18 16 22 40 52 66 78 88 92 95 109 112 115 120 122 125 115 111 107 105 113 112 113 122 122 120 121 127 118 119 113 94 79 86 91 88 81 80 82 85 89 88 81 76 78 81 85 82
-12 -6 3 13 24 38 37 27 35 63 70 87 105 111 117 99 105 132 139 127 120 110 113 120 125 124 124 133 127 115 109 100 91 79 68 63 68 70 77 86 83 84 79 73 73 76 83 78 83 83 83 82 80 74
30 41 36 45 57 65 71 84 86 101 103 102 101 92 88 90 103 99 115 106 113 114 112 109 120 125 98 84 70 64 61 58 61 65 67 66 66 76 78 78 76 70 68 67 68 69 73 76 77 79 74 70 72 72
47 57 72 75 81 93 96 82 100 94 103 100 96 87 89 90 89 77 69 82 99 107 116 109 87 71 67 62 51 45 44 54 57 53 58 57 60 67 71 71 72 69 66 67 68 71 70 70 69 69 68 68 68 70

GFSWCAN_con_3kmhel_033.txt.gz
Helicity
-23 -22 -21 -5 -7 -2 -12 -33 78 104 67 219 330 198 140 117 6 180 328 210 154 174 208 152 103 100 140 90 94 80 119 110 108 98 75 54 51 36 44 42 35 44 60 70 97 88 64 116 115 146 182 111 134 94
-17 -26 -28 -32 10 46 26 54 85 332 261 269 253 180 134 38 57 258 310 202 204 174 164 178 246 216 203 158 101 68 83 68 80 95 113 92 81 71 77 36 62 65 75 93 78 105 138 82 114 121 115 105 111 109
63 88 95 1 163 183 236 353 193 134 238 224 162 139 84 8 77 227 204 165 168 181 154 126 122 135 163 265 268 148 156 118 100 143 104 107 83 70 77 62 85 83 99 112 115 118 112 110 106 118 136 134 102 97
131 191 285 219 144 156 104 100 191 211 150 132 126 94 32 32 59 256 235 179 136 131 149 128 92 146 175 144 149 188 137 170 132 130 149 126 111 77 90 106 88 144 92 95 93 72 130 109 213 169 108 89 119 128
122 92 121 104 133 167 173 152 131 114 126 116 101 92 60 51 94 154 116 178 191 172 120 121 92 169 165 135 120 95 71 114 137 164 155 146 134 126 133 134 118 106 150 120 127 182 145 133 232 129 137 162 168 168
157 160 157 164 145 117 104 93 87 85 76 77 77 79 74 105 147 91 79 94 145 130 100 182 139 167 167 161 168 154 151 163 158 183 174 166 140 128 131 131 194 165 160 152 162 160 148 148 188 180 227 245 240 263
151 150 138 134 115 96 79 67 64 65 72 78 84 96 117 141 172 141 78 82 78 70 111 173 174 141 171 142 203 181 182 180 190 177 188 167 158 158 172 153 174 166 160 174 168 146 192 249 228 242 218 197 227 236
180 199 163 144 144 144 150 120 96 112 115 127 146 168 226 137 61 116 149 104 33 72 102 128 152 177 228 196 191 222 198 193 220 181 182 182 184 212 203 218 230 216 242 227 202 236 267 246 222 215 204 181 191 156
115 124 154 161 168 184 171 176 175 162 192 241 246 233 202 159 125 150 227 32 50 93 120 126 147 158 165 169 184 186 186 182 151 190 191 161 186 202 227 224 249 249 235 203 219 189 187 202 190 162 127 105 112 106
167 175 222 217 157 183 163 135 133 151 181 227 215 230 182 203 233 232 238 97 94 81 106 99 129 124 154 164 178 171 165 130 147 157 150 205 226 229 250 258 245 212 159 133 175 175 160 150 125 100 116 114 101 104
210 207 168 203 219 247 207 116 122 125 160 253 196 181 218 198 118 118 79 76 66 113 103 124 153 134 162 149 161 168 141 139 138 136 150 159 182 190 223 228 188 152 164 142 160 120 115 119 113 97 110 121 113 110
157 162 174 190 176 338 194 200 162 175 184 136 178 165 76 126 107 155 144 107 116 111 116 151 169 158 154 144 141 143 147 137 140 130 167 186 208 227 222 193 155 174 187 167 135 132 121 125 128 133 122 130 135 118
160 163 160 189 173 157 191 290 246 159 203 208 236 233 192 144 125 111 122 141 105 113 144 137 171 160 154 163 164 145 128 154 143 182 204 242 208 240 227 206 180 169 151 128 129 143 144 147 147 141 149 145 97 120
155 162 180 187 186 191 182 132 152 191 245 270 287 232 183 139 128 113 144 132 118 111 133 165 194 156 161 164 145 146 178 186 179 178 184 179 169 205 198 129 131 146 147 144 148 142 136 138 148 146 138 125 124 125
147 193 185 259 210 202 193 184 213 145 141 155 164 177 150 114 115 157 112 94 148 145 153 171 187 171 175 165 175 192 174 187 173 208 162 167 169 170 146 118 145 146 132 118 135 148 142 120 126 148 142 133 119 106
102 136 244 250 208 193 160 151 185 98 134 139 160 160 150 180 160 123 144 156 182 173 166 157 169 192 205 184 176 177 189 194 197 206 147 139 159 140 132 169 155 153 145 148 148 145 149 164 146 137 127 127 98 103
115 105 177 158 196 189 166 101 104 93 86 92 118 151 132 136 133 139 146 141 155 168 203 166 167 163 132 139 195 232 251 193 153 128 122 119 152 174 193 173 159 152 154 157 153 154 148 141 133 136 139 126 98 89
38 52 76 53 39 79 198 170 111 115 151 177 152 180 176 178 154 163 171 184 167 160 183 197 181 190 187 184 157 119 128 142 139 138 155 152 143 136 118 130 143 157 178 157 136 133 140 129 134 139 125 112 86 98
24 68 87 64 37 14 41 95 86 144 199 179 162 148 156 143 125 118 98 79 70 76 78 97 120 151 156 157 129 116 121 140 171 206 209 182 145 152 169 211 200 155 138 131 126 144 150 168 158 141 123 101 93 91
-15 64 97 78 15 27 27 51 61 81 130 107 107 120 108 104 93 120 145 153 147 133 156 154 152 132 145 154 176 114 119 114 135 152 163 161 174 186 167 146 155 163 158 158 173 168 148 140 143 126 111 92 88 92
10 67 63 21 35 31 25 38 49 69 73 75 85 89 84 90 106 127 143 163 140 164 170 182 158 145 128 137 153 166 170 109 123 119 127 140 154 173 192 196 190 187 183 183 171 158 162 155 132 107 93 87 97 84
27 56 29 50 27 34 47 76 65 57 61 63 66 56 75 86 88 96 85 99 121 130 117 119 126 120 133 178 187 187 178 200 207 243 241 219 185 181 187 187 186 204 200 183 168 153 139 129 117 98 90 106 87 105
26 51 68 75 58 71 64 71 83 86 87 94 97 107 112 113 114 94 117 112 117 127 112 110 124 137 145 173 216 249 232 194 204 222 240 238 232 216 204 212 201 181 163 161 146 135 130 106 109 99 105 105 119 141
44 67 81 84 110 112 93 129 117 123 120 118 111 110 116 113 96 125 138 137 133 126 138 119 101 100 117 154 183 235 264 234 228 214 182 169 184 191 181 176 171 167 154 132 128 121 117 114 104 107 124 126 146 148
66 81 77 114 107 112 127 123 128 114 122 109 95 101 102 77 111 131 134 119 124 129 117 101 106 126 125 134 152 171 183 144 128 158 208 170 137 135 144 137 135 137 130 126 131 121 116 109 117 137 143 140 144 128
99 123 103 114 108 102 93 84 89 82 72 72 67 40 16 39 79 104 73 59 55 76 103 123 114 103 131 135 114 116 140 147 119 136 154 156 152 128 119 119 106 127 134 118 109 113 124 138 143 141 133 122 110 101
56 53 19 -0 11 17 16 13 12 14 15 17 10 6 -2 20 32 30 35 48 47 53 64 79 95 100 92 80 80 87 94 119 131 111 105 120 133 148 154 149 150 133 97 110 106 110 122 126 126 123 113 98 105 111
-2 -4 12 -3 1 -1 5 9 9 13 11 5 3 28 36 56 61 50 62 61 63 60 59 61 70 76 82 91 95 97 105 97 91 84 85 98 109 108 109 97 101 94 90 106 103 92 103 105 99 89 90 93 94 89
6 -15 -14 -0 -5 1 5 9 14 20 14 19 40 54 58 71 74 83 78 82 84 87 88 83 86 79 89 101 117 125 133 137 128 124 123 113 106 109 101 90 84 84 85 87 86 85 90 89 83 86 85 82 81 76
1 -19 -1 6 14 24 29 35 42 43 56 69 77 85 98 105 124 128 132 138 135 130 115 113 115 123 132 132 132 129 126 123 118 123 111 112 113 95 75 77 82 85 82 83 91 89 77 87 71 66 73 75 76 88
-2 9 29 39 52 62 63 52 55 70 73 93 127 133 119 99 104 131 143 131 123 126 126 137 149 148 149 147 140 126 115 99 86 84 80 67 67 67 75 88 81 88 86 83 88 84 87 83 78 75 74 79 77 74
36 53 55 65 81 88 82 97 90 99 98 91 93 84 77 77 93 88 111 116 111 118 119 117 121 127 110 98 84 75 72 64 57 67 64 73 70 71 78 81 78 83 81 83 78 75 74 75 73 71 71 68 76 76
51 63 76 78 79 80 80 63 78 82 87 89 85 86 98 102 93 73 63 76 91 103 112 108 92 82 76 65 65 55 42 57 70 56 57 65 67 74 79 78 82 84 78 75 73 69 66 64 67 67 69 70 71 72

GFSWCAN_con_3kmhel_036.txt.gz
Helicity
-118 -91 -52 -25 4 46 54 55 57 61 60 60 55 39 31 163 -86 -95 -41 66 305 112 100 37 52 102 92 79 119 176 239 199 155 99 71 64 69 52 51 21 32 39 51 58 109 71 41 118 106 126 198 145 149 139
-17 -11 -17 -11 6 30 57 52 56 48 34 36 37 93 90 157 -148 -61 69 201 177 71 226 193 250 241 197 140 159 114 120 101 89 82 84 100 89 105 100 55 49 45 49 58 66 75 108 124 181 160 185 149 145 148
-36 -41 -40 -39 -17 11 0 -9 -4 31 5 56 141 137 77 -178 -25 71 -7 104 30 193 317 305 266 218 196 217 219 172 169 83 77 122 120 105 90 83 91 61 93 74 126 94 131 82 94 129 161 261 260 201 122 127
-43 -53 -81 -85 -71 -44 -20 -2 -3 6 44 31 111 170 24 -148 -51 7 256 420 181 189 268 223 173 215 258 220 189 201 149 198 156 174 134 108 98 69 81 88 112 144 123 81 94 109 164 293 418 347 198 202 180 167
-81 -83 -62 0 50 18 -8 8 72 42 83 155 151 93 56 -65 -2 38 311 387 211 187 175 208 125 172 145 136 148 170 143 172 182 177 163 140 144 140 139 138 137 119 135 138 147 269 209 311 307 271 272 252 228 269
249 310 326 404 258 220 273 261 290 331 232 156 53 70 72 77 111 196 321 189 224 175 129 214 210 195 162 121 88 114 121 126 136 208 209 200 165 140 133 139 216 237 219 243 270 248 277 272 311 289 250 229 235 227
-4 7 33 61 54 67 87 133 163 136 110 117 121 79 60 54 162 241 202 189 217 159 76 144 173 221 210 239 297 208 208 254 198 200 212 172 189 185 159 160 214 206 209 207 212 230 342 250 261 200 180 171 175 167
90 50 69 85 93 77 176 175 148 140 138 129 109 112 106 158 175 117 127 219 211 151 95 142 189 221 259 249 262 351 278 241 254 202 213 217 218 222 217 249 273 232 275 247 276 359 359 326 280 219 185 157 161 160
320 164 123 111 88 66 76 84 76 81 104 110 126 159 214 140 206 136 100 193 148 151 170 155 176 260 204 245 258 255 244 241 186 223 225 203 217 225 252 239 277 300 274 284 277 272 274 255 222 198 184 187 192 120
260 265 226 182 96 123 117 97 87 78 81 80 158 268 182 193 132 131 98 103 179 70 77 155 195 213 248 231 242 227 218 175 198 197 195 225 253 248 272 303 234 244 228 229 240 225 220 223 193 173 172 141 205 235
202 293 316 341 269 181 124 133 83 18 -24 271 292 231 195 219 168 152 100 95 67 149 120 153 130 156 250 206 218 210 178 179 165 157 168 179 189 166 207 244 239 217 172 189 178 164 174 207 220 201 204 202 180 165
118 101 258 259 286 267 185 175 267 319 321 223 173 225 263 211 127 106 112 125 72 193 116 150 143 154 154 176 149 183 188 169 171 143 193 197 183 160 188 215 246 239 190 198 218 233 201 166 182 203 182 160 144 134
147 130 137 216 224 278 239 197 235 208 247 264 227 185 173 163 106 74 166 204 131 141 151 147 168 165 156 158 164 146 179 187 144 172 170 200 173 183 241 312 292 226 234 243 229 212 199 218 211 176 168 148 119 168
111 134 191 213 266 194 183 202 251 229 246 167 167 162 122 137 76 82 84 93 59 83 137 160 187 155 157 171 148 162 170 152 152 144 151 154 170 259 304 281 251 248 230 206 178 167 167 167 173 177 179 165 172 168
104 142 164 316 218 179 180 163 142 156 233 222 190 154 109 87 94 76 96 107 147 125 120 129 156 150 163 150 170 159 157 144 131 178 149 144 190 269 244 222 222 219 226 176 163 166 164 138 139 160 169 163 152 132
49 116 197 247 218 167 149 172 177 138 162 215 156 138 184 152 143 147 168 155 155 158 190 178 145 152 165 163 191 199 190 189 203 177 172 192 206 189 186 186 143 135 153 198 163 151 152 157 136 147 141 133 95 97
83 105 192 168 175 131 141 121 119 119 110 126 128 158 135 166 196 173 120 130 162 128 155 154 173 195 168 193 230 244 267 200 161 180 164 119 125 164 223 229 229 224 199 168 138 147 151 145 116 125 147 149 127 96
18 8 41 80 110 156 105 114 80 74 111 145 131 150 139 137 129 147 116 131 107 127 145 161 144 197 226 232 208 173 190 185 172 118 113 161 221 239 206 192 161 180 232 214 173 145 130 110 140 164 167 145 120 134
20 45 95 50 -10 1 104 236 116 127 165 170 173 186 178 177 196 177 178 167 157 159 173 189 186 205 214 194 162 113 130 123 149 196 184 153 153 158 195 230 229 204 166 134 123 158 168 211 195 174 153 134 123 125
-26 56 97 81 28 -16 21 51 20 109 162 131 124 150 128 125 98 118 147 131 129 93 171 185 166 122 121 144 163 102 119 134 167 207 222 203 185 196 196 195 197 209 213 213 226 194 143 148 159 151 137 123 123 109
1 34 37 5 8 14 -2 4 10 41 29 49 73 75 77 72 90 112 138 124 145 154 143 170 146 155 180 193 204 196 155 92 83 102 128 170 180 197 206 231 226 215 217 210 181 190 209 197 167 144 124 120 114 85
0 17 -7 15 5 10 14 62 33 30 45 53 72 59 57 61 76 121 112 153 141 173 151 150 153 139 154 209 225 252 192 202 234 273 261 229 214 201 188 191 227 279 270 252 221 188 177 158 136 119 108 120 98 104
2 14 20 35 25 42 40 75 70 83 67 79 86 85 89 90 101 83 93 108 120 144 96 87 95 111 119 139 166 254 258 209 228 253 288 313 320 306 311 338 284 219 209 208 179 160 143 101 120 105 105 117 101 123
30 23 30 37 61 61 60 98 98 107 112 121 119 120 125 119 96 117 121 115 119 114 134 137 118 60 95 139 166 205 199 184 227 283 223 220 241 219 201 203 212 213 178 143 137 123 118 123 111 110 120 100 108 145
51 46 49 74 72 88 106 106 123 115 121 121 106 116 111 89 112 126 127 101 102 116 120 127 103 148 126 109 122 158 210 174 175 202 223 155 132 145 152 136 141 145 136 132 132 126 120 103 98 109 106 114 141 147
83 91 77 80 86 84 71 66 74 80 72 70 74 43 20 48 78 97 53 47 38 51 69 93 96 74 97 116 111 125 137 110 94 139 185 191 214 169 137 117 90 120 130 125 120 109 99 104 109 115 119 137 140 143
78 86 56 21 31 25 29 23 12 15 24 22 10 11 -1 20 36 26 31 49 44 49 56 67 75 76 75 72 75 82 93 109 104 91 90 108 121 135 142 142 143 117 94 104 95 100 105 116 124 131 130 129 148 166
21 14 39 24 23 23 22 22 25 30 25 14 6 40 39 61 66 58 70 60 53 47 55 64 74 83 92 104 105 106 101 89 77 74 83 85 89 98 98 86 59 26 34 76 73 72 97 106 116 109 124 136 126 117
22 1 2 22 16 20 25 27 26 26 19 26 53 72 66 73 90 91 81 94 108 128 107 92 79 66 69 88 120 137 151 171 163 153 148 130 97 106 76 65 65 73 79 81 82 84 86 87 83 90 82 85 75 73
15 -7 7 20 27 37 37 40 52 52 55 64 62 83 102 95 118 127 124 123 123 118 109 112 113 123 148 129 115 126 127 128 123 124 108 110 102 83 62 67 88 85 88 93 93 92 81 101 99 91 91 89 89 109
1 9 29 41 53 54 57 48 54 57 63 94 158 141 96 80 91 112 139 116 111 142 127 111 130 141 137 134 127 113 105 103 75 82 71 47 55 62 80 97 87 84 82 78 83 87 87 87 88 91 88 95 95 84
23 33 37 56 75 72 63 72 70 89 76 62 58 59 37 42 78 78 93 110 94 97 113 113 109 104 92 80 73 76 59 54 65 77 75 82 85 95 95 100 91 78 77 84 79 72 71 75 77 76 76 77 95 99
35 49 60 70 74 74 74 54 72 81 91 85 75 77 93 104 91 58 46 59 76 82 84 77 66 64 64 58 62 42 43 82 99 71 78 94 83 70 73 76 86 86 82 81 84 79 70 67 76 85 87 81 73 90